MST,Max TemperatureF,Mean TemperatureF,Min TemperatureF,Max Dew PointF,MeanDew PointF,Min DewpointF,Max Humidity, Mean Humidity, Min Humidity, Max Sea Level PressureIn, Mean Sea Level PressureIn, Min Sea Level PressureIn, Max VisibilityMiles, Mean VisibilityMiles, Min VisibilityMiles, Max Wind SpeedMPH, Mean Wind SpeedMPH, Max Gust SpeedMPH,PrecipitationIn, CloudCover, Events, WindDirDegrees
2013-1-1,44,30,17,30,22,14,100,71,37,30.23,30.16,30.11,10,10,10,9,3,,0.00,0,,289
2013-1-2,48,32,15,19,17,12,86,55,30,30.19,30.13,30.07,10,10,10,21,7,28,0.00,0,,142
2013-1-3,37,34,30,30,22,10,93,65,44,30.27,30.18,30.10,10,10,5,25,14,33,0.00,6,Snow,137
2013-1-4,41,32,23,32,27,21,93,82,61,30.34,30.28,30.23,10,9,2,14,10,18,0.00,4,Snow,137
2013-1-5,44,30,17,32,26,16,100,87,53,30.38,30.32,30.27,10,7,0,13,5,,0.00,3,Fog,150
2013-1-6,48,37,26,27,22,18,93,59,32,30.33,30.22,30.03,10,10,10,28,16,36,0.00,0,,141
2013-1-7,55,44,33,34,27,23,70,52,33,30.03,29.92,29.85,10,10,10,25,15,32,0.00,2,,140
2013-1-8,60,46,32,36,23,10,87,46,15,30.09,29.96,29.86,10,10,10,15,7,20,0.00,1,,286
2013-1-9,60,40,21,21,15,10,63,38,16,30.31,30.19,30.10,10,10,10,9,5,,0.00,0,,160
2013-1-10,62,43,24,30,25,19,86,48,22,30.11,29.97,29.82,10,10,10,24,8,33,0.00,0,,180
2013-1-11,53,40,26,28,16,5,81,41,23,29.98,29.88,29.81,10,10,7,28,18,37,0.00,1,,294
2013-1-12,39,26,14,10,5,1,58,40,22,30.05,29.96,29.90,10,10,10,22,6,29,0.00,1,,287
2013-1-13,41,23,5,7,2,-6,66,39,21,30.10,30.00,29.93,10,10,10,12,4,16,0.00,0,,149
2013-1-14,39,26,12,5,0,-4,57,35,16,30.07,30.01,29.95,10,10,10,16,6,21,0.00,0,,290
2013-1-15,37,24,10,5,-1,-9,62,35,17,30.33,30.21,30.07,10,10,10,13,8,17,0.00,0,,293
2013-1-16,50,29,8,3,-2,-11,44,27,15,30.40,30.34,30.28,10,10,10,13,6,18,0.00,0,,148
2013-1-17,57,44,30,19,11,3,45,31,20,30.41,30.36,30.30,10,10,10,29,16,38,0.00,0,,142
2013-1-18,60,46,32,23,19,14,60,40,20,30.36,30.28,30.21,10,10,10,15,9,20,0.00,0,,153
2013-1-19,64,42,19,21,14,5,63,34,14,30.35,30.26,30.21,10,10,10,9,3,,0.00,0,,161
2013-1-20,68,48,28,21,15,9,47,31,15,30.28,30.21,30.12,10,10,10,12,4,,0.00,0,,140
2013-1-21,68,48,28,19,15,10,48,30,15,30.25,30.18,30.12,10,10,10,16,6,22,0.00,0,,140
2013-1-22,68,48,28,23,15,9,47,31,17,30.30,30.24,30.19,10,10,10,8,2,,0.00,0,,145
2013-1-23,71,48,24,27,17,5,47,32,17,30.37,30.29,30.24,10,10,10,10,4,,0.00,0,,147
2013-1-24,66,50,33,36,24,14,51,38,24,30.33,30.28,30.22,10,10,10,13,4,17,0.00,2,,273
2013-1-25,69,56,42,50,39,32,88,50,35,30.28,30.20,30.12,10,10,10,14,5,,0.01,3,Rain,209
2013-1-26,64,54,44,55,50,43,100,86,59,30.15,30.04,29.97,10,10,7,17,8,24,0.27,6,Rain-Thunderstorm,170
2013-1-27,62,53,44,46,44,41,93,75,48,30.08,30.02,29.99,10,10,10,13,6,,0.00,6,Rain,251
2013-1-28,60,46,33,43,38,34,100,70,42,29.99,29.94,29.88,10,8,1,28,13,37,0.41,6,Rain-Snow,228
2013-1-29,42,37,32,34,27,21,100,73,42,30.11,29.97,29.90,10,9,2,28,13,37,0.01,6,Snow,292
2013-1-30,50,38,26,27,22,14,86,59,24,30.31,30.22,30.11,10,10,10,13,5,17,0.00,0,,296
2013-1-31,55,40,26,32,26,23,86,63,33,30.28,30.24,30.19,10,10,10,9,4,,0.00,0,,164